Location: Alafon
(8.4500°N, 4.2333°E)
Time: 02:08:33
(UTC+00:00)

deb Explorer IX - Pass Details

Date: 25 July 2021
Orbit: 545 x 1092 km, 38.8° (Epoch: 16 September)

Event Time Altitude Azimuth Distance (km) Brightness Sun altitude
Rises 20:15:44 0° 335° (NNW) 3,851 ? -30.4°
Reaches altitude 10° 20:20:03 10° 358° (N) 2,926 ? -31.3°
Maximum altitude 20:23:41 14° 29° (NNE) 2,615 ? -32.1°
Enters shadow 20:24:08 14° 33° (NNE) 2,618 ? -32.2°
Drops below altitude 10° 20:27:17 10° 59° (ENE) 2,902 - -32.9°
Sets 20:31:30 0° 83° (E) 3,799 - -33.8°
